Regional Weather Roundup
Issued by NWS

Home | Current Version | Previous Version | Graphics & Text | Print | Product List | Glossary On
Versions: 1 2 3 4 5 6 7 8 9 10 11 12 13 14 15 16 17 18 19 20 21 22 23 24 25 26 27 28 29 30 31 32 33 34 35 36 37 38 39 40 41 42 43 44 45 46 47 48 49 50
000
ASUS45 KTFX 191904
RWRMT
MONTANA HOURLY WEATHER ROUNDUP
NATIONAL WEATHER SERVICE GREAT FALLS MT
104 PM MDT FRI SEP 19 2014

NOTE: "FAIR" INDICATES FEW OR NO CLOUDS BELOW 12000 FEET WITH NO
SIGNIFICANT WEATHER AND/OR OBSTRUCTIONS TO VISIBILITY.

* THESE STATIONS ARE NOT UNDER NWS QUALITY CONTROL. THEY DO NOT
   REPORT WEATHER SUCH AS PRECIPITATION OR FOG.

MTZ001>007-043-192000-
WEST OF THE DIVIDE
CITY           SKY/WX    TMP DP  RH WIND       PRES   REMARKS
KALISPELL      PTSUNNY   70  45  41 W13       29.97F
MISSOULA       CLOUDY    70  45  41 W9        30.06R
BUTTE          PTCLDY    64  39  40 W13       30.10F
MULLAN PASS    CLOUDY    48  45  89 CALM      30.16S
* ESSEX        N/A       58  49  72 SE2        N/A
* LINCOLN      N/A       63  43  48 SW7G16     N/A
* LOOKOUT PASS N/A       55  46  72 N2G9       N/A
* POLSON       N/A       71  46  41 W3G9       N/A
* SEELEY LAKE  N/A       62  45  54 NW6G12     N/A
* THOMP F APT  SUNNY     66  49  54 SW5G10     N/A
$$

MTZ008-052>055-192000-
SOUTHWEST MONTANA
CITY           SKY/WX    TMP DP  RH WIND       PRES   REMARKS
BOZEMAN        SUNNY     72  43  35 NW18G23   30.02F
DILLON         SUNNY     72  41  33 W14G21    30.07F
W YELLOWSTONE  PTSUNNY   61  46  58 SW12G17   30.15S
* THREE FORKS  SUNNY     72  72 100 W16G25     N/A
* BOULDER HILL N/A       62  39  43 S14G20     N/A
* MONIDA PASS  N/A       63  40  43 N3G9       N/A
* RAYNOLDS PAS N/A       63  52  68 SW14       N/A
* WHITEHALL    N/A       73  43  34 W11G19     N/A
* WISE RIVER   N/A       60  39  46 NW10G22    N/A
$$

MTZ009>010-012-014-046-048-049-054-192000-
EAST SLOPES AND CENTRAL MONTANA
CITY           SKY/WX    TMP DP  RH WIND       PRES   REMARKS
CUT BANK       SUNNY     73  43  34 W25G35    29.88S
GREAT FALLS    PTCLDY    72  43  35 W23G35    29.91S
HELENA         PTSUNNY   73  41  32 W21G29    29.98F
MALMSTROM AFB  SUNNY     72  43  35 W18G28    29.92S
* CONRAD       SUNNY     72  48  43 SW18G31    N/A
* EAST GLACIER N/A       61  43  52 W22G29     N/A
* MONARCH      N/A       63  42  46 SW16G28    N/A
* PENDROY      N/A       70  47  44 NW19G26    N/A
* ROGERS PASS  N/A       59  41  51 SE9G20     N/A
* SAINT MARY   N/A       63  45  52 SW11G26    N/A
* SWEET GRASS  N/A       70  39  32 NW14G19    N/A
$$

MTZ011-013-016-021-035-040-045-047-050-051-192000-
NORTH CENTRAL MONTANA
CITY           SKY/WX    TMP DP  RH WIND       PRES   REMARKS
HAVRE          PTCLDY    77  45  32 NW20G29   29.81R
LEWISTOWN      CLOUDY    70  45  41 NW23G33   29.93S
* CHESTER      N/A       71  41  34 NW12G23    N/A
* DENTON       N/A       73  47  40 W22G29     N/A
* GEYSER       N/A       69  46  44 W26G32     N/A
* JUDITH GAP   N/A       66  46  49 NW16G23    N/A
* LOMA         N/A       73  43  34 W15G27     N/A
$$

MTZ017>020-022>027-061-062-192000-
NORTHEAST MONTANA
CITY           SKY/WX    TMP DP  RH WIND       PRES   REMARKS
GLASGOW        PTSUNNY   73  48  41 NW15G21   29.76R
GLENDIVE       PTSUNNY   75  50  42 W23G31    29.78S
JORDAN         PTSUNNY   75  48  39 W17G24    29.81S
SIDNEY         PTCLDY    81  48  32 W22G30    29.71S
WOLF POINT     PTCLDY    77  54  45 NW15G23   29.73R
* BEAVER HILL  N/A       75  47  37 W26        N/A
* CIRCLE       N/A       75  52  45 W14G23     N/A
* LINDSAY DVD  N/A       73  47  40 W26G32     N/A
* NAVAJO       N/A       65  53  65 NW21G27    N/A
$$

MTZ028>042-056>058-192000-
SOUTHCENTRAL AND SOUTHEAST MONTANA
CITY           SKY/WX    TMP DP  RH WIND       PRES   REMARKS
BAKER          PTCLDY    75  48  39 W23G31    29.81S
BILLINGS       PTSUNNY   77  46  33 N17G29    29.91F
LIVINGSTON     PTCLDY    73  43  34 W24G30    29.99F
MILES CITY     PTCLDY    79  46  31 NW21G29   29.81F
* LAUREL APT   PTCLDY    77  39  26 W16G23     N/A
* ROUNDUP APT  CLOUDY    72  43  35 W16G25     N/A
* ALZADA       N/A       77  47  35 W8G15      N/A
* HYSHAM       N/A       72  42  34 W11G25     N/A
* LAME DEER    N/A       70  48  46 W18G24     N/A
* REED POINT   N/A       74  43  33 W17G23     N/A
* ROSCOE HILL  N/A       67  35  31 VRB8G13    N/A
$$

REGIONAL REPORTS...DAKOTAS
CITY           SKY/WX    TMP DP  RH WIND       PRES   REMARKS
WILLISTON      PTCLDY    79  48  34 W23G32    29.67R
DICKINSON      SUNNY     79  48  34 W24       29.72S
BEACH          N/A       73  48  41 W20G25    29.77S
CROSBY         SUNNY     72  54  53 NW15G22   29.64R
TIOGA          SUNNY     75  48  39 NW22G30   29.67R
WATFORD CITY   SUNNY     81  46  29 W23G32    29.64S
BISMARCK       SUNNY     86  52  31 W21       29.65S
GRAND FORKS    PTSUNNY   75  66  74 S16       29.52F
FARGO          CLOUDY    73  64  74 S15       29.59F
BUFFALO SD     SUNNY     81  46  29 W20G26    29.75S
RAPID CITY     PTCLDY    82  52  35 N16       29.83S
$$

REGIONAL REPORTS...WYOMING/IDAHO/WASHINGTON
CITY           SKY/WX    TMP DP  RH WIND       PRES   REMARKS
GILLETTE       PTCLDY    75  50  42 N15G22    29.93S
SHERIDAN       SUNNY     75  52  45 NW12      29.93S
CODY           SUNNY    N/A N/A N/A N/A        N/A
YELLOWSTONE LA SUNNY     61  39  44 W10G16    30.23R
SALMON         SUNNY     68  43  40 NW7       30.06F
MULLAN PASS    CLOUDY    48  45  89 CALM      30.16S
SAND POINT     CLOUDY    68  52  57 SW6       30.04F
SPOKANE        PTCLDY    70  48  46 S12G17    30.06S

$$



USA.gov is the U.S. government's official web portal to all federal, state and local government web resources and services.